This is the latest recevied weather packets stored in our database for station/object WA1NHP. If no packets are shown the sender has not sent any weather packets the latest 10 day(s).
| Time | Temp. | Humidity | Pressure | Rain* | Wind** | Luminosity | Snow |
|---|---|---|---|---|---|---|---|
| 1777442044 | 3.33° C | 80% | 1023.9 hPa | 0 mm | - | 0 W/m² | - |
| 1777441444 | 3.33° C | 79% | 1023.9 hPa | 0 mm | - | 0 W/m² | - |
| 1777440843 | 3.89° C | 78% | 1023.9 hPa | 0 mm | - | 0 W/m² | - |
| 1777440244 | 3.89° C | 77% | 1023.9 hPa | 0 mm | - | 0 W/m² | - |
| 1777439644 | 3.89° C | 76% | 1023.9 hPa | 0 mm | - | 0 W/m² | - |
| 1777439044 | 4.44° C | 75% | 1023.9 hPa | 0 mm | - | 0 W/m² | - |
| 1777438444 | 4.44° C | 74% | 1023.9 hPa | 0 mm | - | 0 W/m² | - |
| 1777437844 | 4.44° C | 73% | 1023.9 hPa | 0 mm | - | 0 W/m² | - |
| 1777437244 | 4.44° C | 72% | 1023.9 hPa | 0 mm | - | 0 W/m² | - |
| 1777436644 | 5° C | 72% | 1023.9 hPa | 0 mm | - | 0 W/m² | - |
| 1777436044 | 5° C | 71% | 1023.9 hPa | 0 mm | - | 0 W/m² | - |
| 1777435443 | 5.56° C | 70% | 1023.9 hPa | 0 mm | - | 0 W/m² | - |
| 1777434844 | 6.11° C | 69% | 1023.9 hPa | 0 mm | - | 0 W/m² | - |
| 1777434244 | 6.11° C | 65% | 1023.9 hPa | 0 mm | - | 0 W/m² | - |
| 1777433644 | 6.11° C | 63% | 1023.9 hPa | 0 mm | - | 0 W/m² | - |
| 1777433044 | 6.67° C | 59% | 1023.9 hPa | 0 mm | - | 0 W/m² | - |
| 1777432444 | 6.67° C | 58% | 1023.9 hPa | 0 mm | - | 0 W/m² | - |
| 1777431844 | 7.22° C | 51% | 1023.9 hPa | 0 mm | - | 0 W/m² | - |
| 1777431245 | 7.22° C | 44% | 1023.9 hPa | 0 mm | - | 0 W/m² | - |
| 1777430644 | 7.22° C | 40% | 1023.9 hPa | 0 mm | - | 0 W/m² | - |
| 1777430044 | 7.78° C | 37% | 1023.9 hPa | 0 mm | - | 0 W/m² | - |
| 1777429444 | 7.78° C | 37% | 1023.9 hPa | 0 mm | - | 0 W/m² | - |
| 1777428844 | 8.33° C | 35% | 1023.9 hPa | 0 mm | - | 0 W/m² | - |
| 1777428243 | 8.33° C | 34% | 1023.9 hPa | 0 mm | - | 0 W/m² | - |
| 1777427644 | 8.89° C | 35% | 1023.9 hPa | 0 mm | - | 0 W/m² | - |
* Rain latest hour (hover to see other rain measurements)
** Current wind speed in m/s (hover to see current wind gust speed)